Terug naar catalogus

STARLINK-5145

ActiefCommunicatieVLEO
NORAD 54008·PAYLOAD·🇺🇸 United States

Gelanceerd Oct 5, 2022 vanaf Vandenberg Space Force Base

Loading…

Volgende Passages (komende 24 uur)

TLE

VersSource: CelesTrak SupGP

Epoch: Sep 15, 2026, 01:38 UTC

1 54008C 22125AW  26258.06854167 -.00026549  00000+0 -78417-3 0  2584
2 54008  53.1592  62.7961 0000928  79.0599 263.2470 15.34413738    17

Volg STARLINK-5145 in realtime met AllMySat

Download on the App Store